Regional Weather Roundup
Issued by NWS

Home | Current Version | Previous Version | Graphics & Text | Print | Product List | Glossary On
Versions: 1 2 3 4 5 6 7 8 9 10 11 12 13 14 15 16 17 18 19 20 21 22 23 24 25 26 27 28 29 30 31 32 33 34 35 36 37 38 39 40 41 42 43 44 45 46 47 48 49 50
000
ASUS43 KDMX 281204
RWRIA

WEATHER ROUNDUP FOR IOWA
NATIONAL WEATHER SERVICE DES MOINES IA
  ISSUED BY NWS QUAD CITIES IA IL
600 AM CST WED JAN 28 2015

NOTE: "FAIR" INDICATES FEW OR NO CLOUDS BELOW 12,000 FEET WITH NO
SIGNIFICANT WEATHER AND/OR OBSTRUCTIONS TO VISIBILITY.

* - THESE STATIONS ARE NOT NWS STATIONS...THUS NOT UNDER NWS
QUALITY CONTROL.  THEY ALSO DO NOT REPORT WEATHER SUCH
AS PRECIPITATION OR FOG.

IAZ001>003-012>014-020>022-031>034-043>046-281300-
   NORTHWEST IOWA

CITY           SKY/WX    TMP DP  RH WIND       PRES   REMARKS
CARROLL *      CLOUDY    30  30 100 SE16      29.96F FOG     WCI  19
CHEROKEE *     MOSUNNY   31  31  99 SE12G17   29.92S FOG     WCI  22
6HR MIN TEMP:  30; 6HR MAX TEMP:  32;

DENNISON *     CLEAR     32  32 100 SE6G12    29.91F WCI  26
LE MARS *      PTCLDY    32  30  93 SE10      29.89F WCI  24
ORANGE CITY *  PTCLDY    32  28  86 SE10      29.88F WCI  24
SIOUX CITY     PTCLDY    32  29  88 SE6       29.89S WCI  26
6HR MIN TEMP:  31; 6HR MAX TEMP:  34;

SPENCER        CLOUDY    31  29  92 SE17      29.93F FOG     WCI  19
6HR MIN TEMP:  31; 6HR MAX TEMP:  32;

$$

IAZ055>058-069>071-079>083-090>094-281300-
   SOUTHWEST IOWA

CITY           SKY/WX    TMP DP  RH WIND       PRES   REMARKS
ATLANTIC *     CLEAR     32  30  93 SE5G12    29.94F WCI  27
AUDUBON *      PTCLDY    30  27  86 SE10      29.95F WCI  21
CLARINDA *     CLEAR     34  30  86 SE9       29.96S WCI  26
COUNCIL BLFS * CLEAR     32  32 100 SE10      29.89S WCI  24
CRESTON *      CLEAR     30  30 100 SE14      29.97S FOG     WCI  20
HARLAN *       CLEAR     32  32 100 SE8       29.96F WCI  25
LAMONI         CLEAR     29  27  92 E8        29.98F WCI  21
6HR MIN TEMP:  29; 6HR MAX TEMP:  33;

$$

IAZ047>049-059>061-072>074-084-281300-
   CENTRAL IOWA

CITY           SKY/WX    TMP DP  RH WIND       PRES   REMARKS
AMES           CLOUDY    29  27  92 SE14G24   30.03F FOG     WCI  18
6HR MIN TEMP:  29; 6HR MAX TEMP:  29;

BOONE *        FOG       30  30 100 SE18G24   30.00F VSB 1/2 WCI  18
CHARITON *     MOCLDY    28  28 100 SE15      30.02F FOG     WCI  17
DES MOINES     CLOUDY    31  27  85 SE12G21   30.03F FOG     WCI  22
6HR MIN TEMP:  30; 6HR MAX TEMP:  31;

GRINNELL *     CLOUDY    29  29  98 SE15G22   30.08F FOG     WCI  18
6HR MIN TEMP:  28; 6HR MAX TEMP:  29;

MARSHALLTOWN   FOG       28  27  96 SE15      30.07F VSB 1   WCI  16
6HR MIN TEMP:  28; 6HR MAX TEMP:  29;

PERRY *          N/A     31  31  99 SE16      29.99F FOG     WCI  20
6HR MIN TEMP:  30; 6HR MAX TEMP:  31;

$$

IAZ004>006-015-016-023>025-035-036-281300-
   NORTH CENTRAL IOWA

CITY           SKY/WX    TMP DP  RH WIND       PRES   REMARKS
ALGONA *       FOG       30  30 100 SE18G25   29.98S VSB 1   WCI  18
CLARION *      MIX PCPN  30  30 100 SE18G29   30.01F VSB 3/4 WCI  18
ESTHERVILLE    CLOUDY    30  29  96 S20       29.93F FOG     WCI  17
6HR MIN TEMP:  29; 6HR MAX TEMP:  30;

FORT DODGE *   CLOUDY    30  27  86 SE10      30.00S WCI  21
6HR MIN TEMP:  28; 6HR MAX TEMP:  30;

MASON CITY     FOG       27  26  96 SE22      30.03F VSB 3/4 WCI  13
6HR MIN TEMP:  27; 6HR MAX TEMP:  29; 6HR PCP: TRACE;

WEBSTER CITY * FOG       30  30 100 SE18G26   29.99F VSB 1/2 WCI  18
IOWA FALLS *   FOG       29  28  96 SE17      30.05F VSB 1/2 WCI  17
6HR MIN TEMP:  28; 6HR MAX TEMP:  30;

$$

IAZ007>011-017>019-026>030-037>042-050>054-066-281300-
   NORTHEAST IOWA

CITY           SKY/WX    TMP DP  RH WIND       PRES   REMARKS
CEDAR RAPIDS   CLOUDY    27  27 100 SE12      30.13F FOG     WCI  17
6HR MIN TEMP:  25; 6HR MAX TEMP:  27;

CHARLES CITY * CLOUDY    27  27 100 SE16G24   30.08F FOG     WCI  14
CLINTON *      CLOUDY    28  23  80 S8        30.23F WCI  20
6HR MIN TEMP:  27; 6HR MAX TEMP:  28;

DECORAH *      CLOUDY    23  23 100 S9G17     30.10F FOG     WCI  13
DUBUQUE        CLOUDY    25  23  92 S16       30.17S FOG     WCI  12
6HR MIN TEMP:  24; 6HR MAX TEMP:  26;

MONTICELLO *   CLOUDY    27  27 100 SE12G18   30.16F FOG     WCI  16
OELWEIN *      CLOUDY    25  25 100 SE18      30.12R FOG     WCI  11
WATERLOO       CLOUDY    26  25  96 SE13      30.10F FOG     WCI  15
6HR MIN TEMP:  26; 6HR MAX TEMP:  27;

$$

IAZ064-065-067-068-078-281300-
   EAST CENTRAL IOWA

CITY           SKY/WX    TMP DP  RH WIND       PRES   REMARKS
DAVENPORT      CLOUDY    28  24  85 S12       30.20S WCI  18
6HR MIN TEMP:  26; 6HR MAX TEMP:  28;

IOWA CITY      CLOUDY    29  27  92 S10       30.18S FOG     WCI  20
6HR MIN TEMP:  27; 6HR MAX TEMP:  29;

MT. PLEASANT * MOCLDY    28  27  96 SE10      30.18R FOG     WCI  19
6HR MIN TEMP:  28; 6HR MAX TEMP:  29;

MUSCATINE *    CLOUDY    30  27  86 S12G17    30.20R WCI  21
QUAD CITIES    PTCLDY    28  22  78 SE7       30.20S WCI  21
6HR MIN TEMP:  27; 6HR MAX TEMP:  29;

$$

IAZ062-063-075>077-085>089-095>099-281300-
   SOUTHEAST IOWA

CITY           SKY/WX    TMP DP  RH WIND       PRES   REMARKS
BURLINGTON     PTCLDY    28  25  88 S10       30.19R WCI  19
6HR MIN TEMP:  28; 6HR MAX TEMP:  30;

FAIRFIELD *    MOCLDY    28  27  93 SE13G20   30.14F FOG     WCI  18
FORT MADISON * CLEAR     28  27  93 SE10      30.19R WCI  19
KEOKUK *       CLEAR     28  27  93 SE13      30.17R WCI  18
OTTUMWA        MOCLDY    28  26  92 SE15      30.10F WCI  16
6HR MIN TEMP:  28; 6HR MAX TEMP:  29;

WASHINGTON *   CLOUDY    30  30 100 SE13      30.16S FOG     WCI  20
$$

ABBREVIATIONS USED IN REMARKS
   TC - TEMPERATURES IN CELSIUS
  WCI - WIND CHILL INDEX
   HX - HEAT INDEX
  VSB - VISIBILITY
$$



USA.gov is the U.S. government's official web portal to all federal, state and local government web resources and services.